COSMO-SKYMED 2

Last updated on Mon Sep 07 2026 00:02:45 GMT+0000 (Coordinated Universal Time)

1 32376U 07059A 26249.57876287 .00000199 00000+0 31532-4 0 9991 2 32376 97.8912 72.0145 0001398 89.1136 271.0237 14.82157738 14066
UTC large
Height (km)
Speed (km/s)
/
Latitude / Longitude
Inclination (degrees)
Orbital Period (minutes)
Azimuth
Elevation
Range (km)
Doppler Factor

Next 0 passes for location: London (51.5072 / 0.1276)

No passes found over London.
COSMO-SKYMED 2